Location: ??????????
(54.4061°N, 22.6114°E)
Time: 13:39:34
(UTC+00:00)

Cosmos 1939 Rocket - Pass Details

Date: 23 October 2019
Orbit: 533 x 584 km, 97.4° (Epoch: 14 November)

Event Time Altitude Azimuth Distance (km) Brightness Sun altitude
Exits shadow 17:46:33 - 187° (S) 2,544 6.2 -22.7°
Reaches altitude 10° 17:48:16 10° 194° (SSW) 1,861 5.5 -23.0°
Maximum altitude 17:52:04 38° 263° (W) 877 4.3 -23.5°
Drops below altitude 10° 17:55:56 10° 333° (NNW) 1,901 6.1 -24.1°
Sets 17:58:14 0° 341° (NNW) 2,812 6.9 -24.4°
